Gwinn, MI

1:43 PM EDT on October 17, 2017 (GMT -0400)
Sawyer International

Weather History for KSAW - March, 2013

Change the Weather History Date:

Sunday, March 10, 2013

  Actual Average (KESC) Record (KESC)
Temperature  
Mean Temperature 32 °F -  
Max Temperature 33 °F 34 °F 59 °F (2014)
Min Temperature 30 °F 17 °F -9 °F (2008)
Degree Days  
Heating Degree Days 34    
Moisture  
Dew Point 31 °F    
Average Humidity 93    
Maximum Humidity 100    
Minimum Humidity 86    
Precipitation  
Precipitation 0.00 in - - ()
Sea Level Pressure  
Sea Level Pressure 29.81 in    
Wind  
Wind Speed 13 mph (NNW)    
Max Wind Speed 24 mph    
Max Gust Speed 34 mph    
Visibility 4 miles    
Events Fog , Snow    
Averages and records for this station are not official NWS values.
T = Trace of Precipitation, MM = Missing Value Source: NWS Daily Summary

Daily Weather History Graph

Daily Weather History Graph

Search for Another Location

Airport or City:

Trip Planner

Search our weather history database for the weather conditions in past years. The results will help you decide how hot, cold, wet, or windy it might be!

Date:

Astronomy

Mar. 10, 2013 Rise Set
Actual Time 8:11 AM EDT 7:48 PM EDT
Civil Twilight 7:41 AM EDT 8:18 PM EDT
Nautical Twilight 7:06 AM EDT 8:53 PM EDT
Astronomical Twilight 6:31 AM EDT 9:29 PM EDT
Moon 7:13 AM EDT (3/10) 6:55 PM EDT (3/10)
Length of Visible Light 12h 37m
Length of Day
11h 37m
Waning Crescent, 2% of the Moon is Illuminated
Mar 10
Waning Crescent
Mar 11
New
Mar 19
First Quarter
Mar 27
Full
Apr 3
Last Quarter

Hourly Weather History & Observations

Time (EDT) Temp. Windchill Dew Point Humidity Pressure Visibility Wind Dir Wind Speed Gust Speed Precip Events Conditions
12:17 AM 33.1 °F 23.0 °F 32.0 °F 96% 29.79 in 7.0 mi South 15.0 mph - N/A   Overcast
12:36 AM 33.3 °F 22.8 °F 32.0 °F 95% 29.81 in 10.0 mi SSW 16.1 mph - N/A   Overcast
12:57 AM 33.3 °F 23.2 °F 32.0 °F 95% 29.79 in 4.0 mi South 15.0 mph - N/A   Overcast
1:17 AM 33.4 °F 23.9 °F 32.4 °F 96% 29.79 in 4.0 mi South 13.8 mph - N/A   Overcast
1:36 AM 33.8 °F 23.5 °F 32.5 °F 95% 29.78 in 4.0 mi SSW 16.1 mph - N/A   Overcast
1:57 AM 33.8 °F 23.9 °F 32.9 °F 96% 29.78 in 3.0 mi SSW 15.0 mph - N/A   Overcast
3:16 AM 33.8 °F 25.8 °F 32.9 °F 96% 29.77 in 3.0 mi SSW 10.4 mph - N/A   Overcast
3:37 AM 33.8 °F 25.3 °F 32.9 °F 96% 29.76 in 3.0 mi SSW 11.5 mph - N/A   Overcast
3:57 AM 33.8 °F 26.4 °F 32.9 °F 96% 29.77 in 2.5 mi SSW 9.2 mph - N/A   Drizzle
4:16 AM 33.8 °F 27.0 °F 32.9 °F 96% 29.75 in 2.0 mi SSW 8.1 mph - N/A   Overcast
4:37 AM 33.8 °F 27.0 °F 32.0 °F 93% 29.74 in 1.5 mi SSW 8.1 mph - N/A   Overcast
4:57 AM 33.4 °F 28.1 °F 32.5 °F 96% 29.74 in 1.0 mi SSW 5.8 mph - N/A   Overcast
5:16 AM 33.4 °F 27.3 °F 32.9 °F 98% 29.74 in 0.8 mi SSW 6.9 mph - N/A   Overcast
5:37 AM 33.4 °F 29.1 °F 32.7 °F 97% 29.75 in 0.5 mi SSW 4.6 mph - N/A Fog Fog
5:57 AM 33.4 °F 29.1 °F 32.7 °F 97% 29.75 in 0.5 mi SSW 4.6 mph - N/A Fog Fog
6:50 AM 33.8 °F 27.7 °F 32.0 °F 93% 29.76 in 0.2 mi SW 6.9 mph - N/A Fog Fog
7:20 AM 33.8 °F 28.6 °F 32.0 °F 93% 29.77 in 0.5 mi SSW 5.8 mph - N/A Fog Fog
7:50 AM 33.8 °F 29.6 °F 32.0 °F 93% 29.77 in 0.5 mi WSW 4.6 mph - N/A Fog Fog
8:20 AM 33.8 °F - 32.0 °F 93% 29.77 in 1.8 mi Calm Calm - N/A   Overcast
8:50 AM 33.8 °F - 32.0 °F 93% 29.75 in 1.5 mi Calm Calm - N/A   Overcast
9:50 AM 33.8 °F - 32.0 °F 93% 29.77 in 1.8 mi Calm Calm - N/A   Overcast
10:50 AM 33.8 °F - 33.8 °F 100% 29.79 in 4.0 mi Calm Calm - N/A   Overcast
11:50 AM 33.8 °F 27.0 °F 33.8 °F 100% 29.83 in 7.0 mi North 8.1 mph - N/A   Overcast
12:45 PM 33.8 °F 25.8 °F 32.0 °F 93% 29.84 in 5.0 mi North 10.4 mph - N/A Snow Light Snow
1:50 PM 33.8 °F 25.3 °F 30.2 °F 87% 29.87 in 10.0 mi North 11.5 mph - N/A   Overcast
2:50 PM 33.8 °F 23.2 °F 30.2 °F 87% 29.87 in 10.0 mi NNE 17.3 mph - N/A   Overcast
3:50 PM 32.0 °F 21.2 °F 28.4 °F 87% 29.89 in 10.0 mi North 16.1 mph 24.2 mph N/A   Overcast
4:50 PM 32.0 °F 19.2 °F 28.4 °F 87% 29.90 in 10.0 mi North 23.0 mph 26.5 mph N/A   Overcast
5:55 PM 30.2 °F 16.8 °F 26.6 °F 86% 29.87 in 10.0 mi NNE 23.0 mph 34.5 mph N/A   Mostly Cloudy
6:55 PM 30.2 °F 16.5 °F 26.6 °F 86% 29.88 in 10.0 mi NNE 24.2 mph 257.8 mph N/A   Overcast
7:50 PM 30.2 °F 18.1 °F 26.6 °F 86% 29.90 in 10.0 mi North 18.4 mph - N/A   Overcast
9:50 PM 32.0 °F 20.8 °F 28.4 °F 87% 29.91 in 10.0 mi NNE 17.3 mph 24.2 mph N/A   Overcast
10:17 PM 31.5 °F 20.5 °F 28.4 °F 88% 29.89 in 10.0 mi NNE 16.1 mph 24.2 mph N/A   Overcast
10:36 PM 31.1 °F 19.7 °F 28.4 °F 90% 29.88 in 1.2 mi NNE 17.3 mph 25.3 mph N/A Snow Light Snow
10:57 PM 30.9 °F 19.4 °F 28.9 °F 92% 29.87 in 1.0 mi NNE 17.3 mph 25.3 mph N/A Snow Snow
11:16 PM 31.1 °F 19.7 °F 29.3 °F 93% 29.85 in 0.8 mi NE 17.3 mph 26.5 mph N/A Snow Snow
11:37 PM 31.1 °F 20.1 °F 29.8 °F 95% 29.85 in 1.0 mi NE 16.1 mph 25.3 mph N/A Snow Light Snow
11:57 PM 31.5 °F 20.1 °F 30.0 °F 94% 29.84 in 1.0 mi NE 17.3 mph 29.9 mph N/A Snow Light Snow
12:16 AM 31.3 °F 18.5 °F 30.0 °F 95% 29.83 in 1.0 mi NE 21.9 mph 26.5 mph N/A Snow Snow
12:37 AM 31.5 °F 19.1 °F 30.0 °F 94% 29.81 in 1.2 mi NE 20.7 mph 26.5 mph N/A Snow Light Snow
12:57 AM 31.5 °F 18.8 °F 29.8 °F 94% 29.80 in 1.5 mi NE 21.9 mph 32.2 mph N/A Snow Light Snow